Location: Chuathbaluk
(61.5726°N, 159.2454°W)
Time: 14:30:19
(UTC+00:00)

DELFI C3 - Pass Details

Date: 25 January 2021
Orbit: 531 x 550 km, 97.4° (Epoch: 04 March)

Event Time Altitude Azimuth Distance (km) Brightness Sun altitude
Exits shadow 07:12:03 20° 288° (WNW) 1,329 ? -33.2°
Drops below altitude 10° 07:14:18 10° 321° (NW) 1,843 ? -33.4°
Sets 07:16:53 0° 338° (NNW) 2,744 ? -33.7°
